Syracuse, NY

1:21 PM EDT on October 20, 2019 (GMT -0400)
Syracuse Hancock International

Weather History for KSYR - September, 2019

Change the Weather History Date:

Sunday, September 22, 2019

  Actual Average Record
Temperature  
Mean Temperature 72 °F 60 °F  
Max Temperature 87 °F 70 °F 92 °F (1931)
Min Temperature 57 °F 50 °F 35 °F (1963)
Degree Days  
Heating Degree Days 0 6  
Month to date heating degree days 43 77  
Since 1 July heating degree days 48 103  
Cooling Degree Days 7 1  
Month to date cooling degree days 31 47  
Year to date cooling degree days 599 560  
Growing Degree Days 22 (Base 50)    
Moisture  
Dew Point 61 °F    
Average Humidity 70    
Maximum Humidity 89    
Minimum Humidity 51    
Precipitation  
Precipitation 0.00 in 0.13 in 1.58 in (1938)
Month to date precipitation 2.04 2.67  
Year to date precipitation 32.68 27.26  
Snow  
Snow 0.00 in 0.00 in 0.00 in (2002)
Month to date snowfall 0.0 0.0  
Since 1 July snowfall T 0.0  
Since 1 September snowfall 0.0 0.0  
Snow Depth 0.00 in    
Sea Level Pressure  
Sea Level Pressure 30.01 in    
Wind  
Wind Speed 6 mph ()    
Max Wind Speed 14 mph    
Max Gust Speed 18 mph    
Visibility 10.0 miles    
Events      
T = Trace of Precipitation, MM = Missing Value Source: Averaged Metar Reports

Daily Weather History Graph

Daily Weather History Graph

Search for Another Location

Airport or City:

Astronomy

Sep. 22, 2019 Rise Set
Actual Time 6:51 AM EDT 7:02 PM EDT
Civil Twilight 6:23 AM EDT 7:30 PM EDT
Nautical Twilight 5:49 AM EDT 8:03 PM EDT
Astronomical Twilight 5:15 AM EDT 8:37 PM EDT
Moon No Moon Rise 3:05 PM EDT (9/22)
Length of Visible Light 13h 07m
Length of Day
12h 10m
Last Quarter, 44% of the Moon is Illuminated
Sep 22
Last Quarter
Sep 28
New
Oct 5
First Quarter
Oct 13
Full
Oct 21
Last Quarter

Hourly Weather History & Observations

Time (EDT) Temp. Heat Index Dew Point Humidity Pressure Visibility Wind Dir Wind Speed Gust Speed Precip Events Conditions
12:54 AM 60.1 °F - 55.0 °F 83% 30.13 in 10.0 mi East 5.8 mph - N/A   Clear
1:54 AM 59.0 °F - 54.0 °F 83% 30.12 in 10.0 mi East 5.8 mph - N/A   Partly Cloudy
2:54 AM 57.9 °F - 54.0 °F 87% 30.11 in 10.0 mi East 3.5 mph - N/A   Partly Cloudy
3:54 AM 57.9 °F - 54.0 °F 87% 30.10 in 10.0 mi East 5.8 mph - N/A   Partly Cloudy
4:54 AM 57.0 °F - 54.0 °F 89% 30.09 in 10.0 mi East 4.6 mph - N/A   Partly Cloudy
5:54 AM 57.0 °F - 54.0 °F 89% 30.09 in 10.0 mi East 5.8 mph - N/A   Partly Cloudy
6:54 AM 57.0 °F - 53.1 °F 87% 30.10 in 10.0 mi East 4.6 mph - N/A   Scattered Clouds
7:54 AM 59.0 °F - 55.0 °F 87% 30.10 in 10.0 mi East 5.8 mph - N/A   Mostly Cloudy
8:54 AM 64.9 °F - 57.0 °F 75% 30.09 in 10.0 mi ENE 3.5 mph - N/A   Overcast
9:54 AM 70.0 °F - 62.1 °F 76% 30.07 in 10.0 mi East 5.8 mph - N/A   Mostly Cloudy
10:54 AM 77.0 °F - 64.0 °F 64% 30.06 in 10.0 mi Calm Calm - N/A   Mostly Cloudy
11:54 AM 82.9 °F 85.4 °F 66.9 °F 58% 30.05 in 10.0 mi WSW 8.1 mph - N/A   Mostly Cloudy
12:54 PM 84.9 °F 87.6 °F 66.9 °F 55% 30.02 in 10.0 mi West 9.2 mph - N/A   Mostly Cloudy
1:54 PM 84.9 °F 86.6 °F 64.9 °F 51% 30.00 in 10.0 mi West 13.8 mph - N/A   Overcast
2:54 PM 84.9 °F 86.6 °F 64.9 °F 51% 29.98 in 10.0 mi WSW 9.2 mph - N/A   Mostly Cloudy
3:54 PM 84.9 °F 87.1 °F 66.0 °F 53% 29.96 in 10.0 mi SW 6.9 mph - N/A   Mostly Cloudy
4:54 PM 82.9 °F 85.0 °F 66.0 °F 56% 29.94 in 10.0 mi South 9.2 mph - N/A   Mostly Cloudy
5:54 PM 82.9 °F 85.4 °F 66.9 °F 58% 29.93 in 10.0 mi SSE 5.8 mph - N/A   Scattered Clouds
6:54 PM 80.1 °F 82.3 °F 66.9 °F 64% 29.92 in 10.0 mi South 5.8 mph - N/A   Scattered Clouds
7:54 PM 78.1 °F - 66.0 °F 66% 29.92 in 10.0 mi South 6.9 mph - N/A   Scattered Clouds
8:54 PM 78.1 °F - 64.9 °F 64% 29.91 in 10.0 mi South 9.2 mph - N/A   Partly Cloudy
9:54 PM 78.1 °F - 64.9 °F 64% 29.90 in 10.0 mi South 10.4 mph - N/A   Scattered Clouds
10:54 PM 78.1 °F - 64.9 °F 64% 29.89 in 10.0 mi SSW 11.5 mph - N/A   Scattered Clouds
11:54 PM 77.0 °F - 64.0 °F 64% 29.87 in 10.0 mi South 6.9 mph - N/A   Scattered Clouds